TimeEST,TemperatureF,Dew PointF,Humidity,Sea Level PressureIn,VisibilityMPH,Wind Direction,Wind SpeedMPH,Gust SpeedMPH,PrecipitationIn,Events,Conditions,WindDirDegrees,DateUTC
12:56 AM,27.0,23.0,85,30.34,8.0,Calm,Calm,-,N/A,,Clear,0,2012-12-14 05:56:00
1:56 AM,23.0,21.0,92,30.33,7.0,Calm,Calm,-,N/A,,Clear,0,2012-12-14 06:56:00
2:56 AM,25.0,23.0,92,30.32,7.0,Calm,Calm,-,N/A,,Clear,0,2012-12-14 07:56:00
3:56 AM,24.1,21.9,91,30.31,6.0,Calm,Calm,-,N/A,,Partly Cloudy,0,2012-12-14 08:56:00
4:56 AM,24.1,21.9,91,30.31,6.0,Calm,Calm,-,N/A,,Partly Cloudy,0,2012-12-14 09:56:00
5:56 AM,24.8,21.2,86,30.29,6.0,Calm,Calm,-,N/A,,Partly Cloudy,0,2012-12-14 10:56:00
6:56 AM,24.1,21.9,91,30.31,5.0,Calm,Calm,-,N/A,,Clear,0,2012-12-14 11:56:00
7:56 AM,24.1,23.0,96,30.32,6.0,Calm,Calm,-,N/A,,Scattered Clouds,0,2012-12-14 12:56:00
8:56 AM,30.0,28.0,92,30.31,4.0,Calm,Calm,-,N/A,,Scattered Clouds,0,2012-12-14 13:56:00
9:56 AM,34.0,28.0,79,30.31,6.0,Calm,Calm,-,N/A,,Haze,0,2012-12-14 14:56:00
10:56 AM,36.0,27.0,70,30.29,9.0,Calm,Calm,-,N/A,,Partly Cloudy,0,2012-12-14 15:56:00
11:56 AM,41.0,28.0,60,30.26,10.0,NW,3.5,-,N/A,,Clear,320,2012-12-14 16:56:00
12:56 PM,44.6,28.4,53,30.23,10.0,Calm,Calm,-,N/A,,Mostly Cloudy,0,2012-12-14 17:56:00
1:56 PM,46.0,30.0,54,30.22,10.0,Calm,Calm,-,N/A,,Scattered Clouds,0,2012-12-14 18:56:00
2:56 PM,48.9,28.0,44,30.21,10.0,Calm,Calm,-,N/A,,Mostly Cloudy,0,2012-12-14 19:56:00
3:56 PM,46.9,27.0,46,30.20,10.0,WNW,3.5,-,N/A,,Mostly Cloudy,290,2012-12-14 20:56:00
4:56 PM,42.1,25.0,51,30.20,10.0,NNW,4.6,-,N/A,,Mostly Cloudy,330,2012-12-14 21:56:00
5:56 PM,36.0,27.0,70,30.22,10.0,Calm,Calm,-,N/A,,Scattered Clouds,0,2012-12-14 22:56:00
6:56 PM,35.1,27.0,72,30.23,10.0,Calm,Calm,-,N/A,,Partly Cloudy,0,2012-12-14 23:56:00
7:56 PM,33.1,27.0,78,30.25,10.0,Calm,Calm,-,N/A,,Partly Cloudy,0,2012-12-15 00:56:00
8:56 PM,30.9,26.1,82,30.25,9.0,Calm,Calm,-,N/A,,Scattered Clouds,0,2012-12-15 01:56:00
9:56 PM,28.9,26.1,89,30.26,9.0,Calm,Calm,-,N/A,,Mostly Cloudy,0,2012-12-15 02:56:00
10:56 PM,30.0,27.0,88,30.26,10.0,Calm,Calm,-,N/A,,Mostly Cloudy,0,2012-12-15 03:56:00
11:56 PM,28.9,25.0,85,30.27,9.0,Calm,Calm,-,N/A,,Partly Cloudy,0,2012-12-15 04:56:00